www.pogodaiklimat.ru

Погода и климат >> Архив погоды >> Гренландия >> Qaarsut Mittarfia


ПОГОДА в Qaarsut Mittarfia

  • Прогноз погоды в Qaarsut Mittarfia
  • Монитор погоды в Qaarsut Mittarfia
  • Климат города

АРХИВ ПОГОДЫ в Qaarsut Mittarfia

Время (UTC), дата Ветер
(напр.,м/с)
 
Видим.   Явления Облачность Т
(С)
Тd
(С)
f
(%)
Тe
(С)
Тes
(С)
Комфортность P
(гПа)
Po
(гПа)
Тmin
(С)
Tmax
(С)
R
(мм)
R24
(мм)
S
(см)
15 11.12 ЮЗ 2 35 км 9/0
[]
-4.7 -9.2 71 -8 -8 990.7 979.6
16 11.12 ЮЗ 6 35 км 1/0
[]
-5.2 -12.0 59 -12 -12 989.0 977.9
18 11.12 СЗ 6 35 км ясно -5.2 -8.3 79 -13 -13 986.7 975.6 -6.4 +0.9
20 11.12 ЮЗ 5 35 км 6/0
[]
-5.7 -10.4 69 -13 -13 984.7 973.6
21 11.12 ЮЗ 2 35 км 9/0
[]
-5.4 -8.9 76 -9 -9 984.1 973.1
23 11.12 Ю 3 35 км 10/0
[]
-4.6 -8.7 73 -10 -10 982.6 971.6
22 11.12 Ю 2 35 км 9/0
[]
-4.6 -10.8 62 -9 -9 983.4 972.4
00 12.12 ЮЗ 4 35 км 6/0
[]
-3.7 -14.5 43 -9 -9 981.4 970.5
01 12.12 ЮВ 3 35 км 6/0
[]
-4.8 -12.6 54 -9 -9 981.1 970.1
02 12.12 ЮВ 4 35 км 10/0
[]
-4.8 -12.8 53 -10 -10 980.3 969.4
03 12.12 ЮВ 7 35 км 8/0
[]
-4.4 -12.2 54 -12 -12 979.8 968.9
05 12.12 В 8 35 км 8/0
[]
-4.0 -7.9 74 -12 -12 979.3 968.4
04 12.12 ЮВ 5 35 км 5/0
[]
-4.4 -10.6 62 -11 -11 979.4 968.5
06 12.12 ЮВ 4 35 км 9/0
[]
-3.9 -8.6 70 -10 -10 979.1 968.1 -6.0 -3.4
07 12.12 ЮВ 5 35 км 10/0
[]
-2.2 -9.7 56 -8 -8 979.1 968.3
08 12.12 ЮВ 6 35 км 3/0
[]
-0.2 -9.3 50 -6 -6 978.7 968.0
09 12.12 ЮВ 4 35 км 8/0
[]
-0.6 -9.7 50 -6 -6 978.8 968.0
11 12.12 В 8 35 км 6/0
[]
-1.9 -9.4 56 -9 -9 978.9 968.0
10 12.12 ЮВ 6 35 км 9/0
[]
-0.5 -9.1 52 -7 -7 978.7 967.9
12 12.12 В 5 35 км 6/0
[]
-2.4 -9.4 59 -8 -8 979.1 968.2
13 12.12 ЮВ 6 35 км 1/0
[]
-1.3 -9.8 52 -7 -7 979.6 968.8
14 12.12 В 7 35 км 3/0
[]
-1.3 -8.8 57 -8 -8 980.1 969.2
15 12.12 ЮВ 7 35 км 9/0
[]
-0.5 -9.9 49 -7 -7 980.7 969.9
17 12.12 В 6 35 км 4/0
[]
-1.7 -10.5 51 -8 -8 981.5 970.6
16 12.12 ЮВ 8 35 км 9/0
[]
-0.4 -10.6 46 -7 -7 981.2 970.4
18 12.12 ЮВ 7 35 км ясно -2.1 -10.8 51 -9 -9 982.2 971.4 -3.9 +0.4
19 12.12 В 8 35 км ясно -2.8 -9.8 59 -11 -11 983.1 972.2
20 12.12 В 8 35 км ясно -2.8 -9.8 59 -11 -11 983.1 972.2
21 12.12 В 7 35 км ясно -3.5 -10.7 57 -11 -11 985.3 974.3
23 12.12 ЮВ 6 35 км ясно -2.7 -11.4 51 -9 -9 986.8 975.9
22 12.12 ЮВ 7 35 км ясно -2.3 -11.5 49 -9 -9 986.1 975.2
00 13.12 ЮВ 6 35 км ясно -3.9 -11.8 54 -11 -11 988.1 977.1
01 13.12 ЮВ 9 35 км ясно -2.0 -11.8 47 -10 -10 989.2 978.2
02 13.12 ЮВ 10 35 км ясно -3.3 -10.0 60 -12 -12 990.5 979.5
03 13.12 ЮВ 10 35 км ясно -3.6 -10.5 59 -12 -12 991.7 980.6
05 13.12 ЮВ 8 35 км ясно -3.7 -10.8 58 -12 -12 994.0 982.9
04 13.12 Ю 5 35 км ясно -4.5 -12.6 53 -11 -11 992.9 981.8
06 13.12 ЮВ 7 35 км ясно -4.3 -10.5 62 -12 -12 995.3 984.1 -4.9 -0.3
07 13.12 ЮВ 8 35 км ясно -3.6 -12.2 51 -11 -11 996.5 985.4
08 13.12 ЮВ 7 35 км ясно -4.2 -11.6 56 -12 -12 997.9 986.8
09 13.12 ЮВ 5 35 км ясно -4.3 -10.9 60 -11 -11 999.2 988.1
11 13.12 ЮВ 7 35 км 9/0 2000 м
[]
-3.9 -8.2 72 -12 -12 1001.7 990.5
10 13.12 ЮВ 8 35 км ясно -4.5 -9.2 70 -13 -13 1000.4 989.2
12 13.12 ЮВ 8 35 км 1/0 2000 м
[]
-3.4 -7.9 71 -11 -11 1002.6 991.4
13 13.12 ЮВ 6 35 км 10/10 700 м
[]
-3.2 -7.0 75 -11 -11 1003.9 992.7
14 13.12 Ю 1 35 км 10/0 2000 м
[]
-3.2 -7.2 74 -5 -5 1005.4 994.2
15 13.12 ЮЗ 4 11 км слаб. снег {ливн. осадки} 10/10 840 м
[]
-3.2 -6.8 76 -9 -9 1007.0 995.8
17 13.12 З 3 2800 м слаб. снег {ливн. осадки} 10/10 480 м
[]
-3.6 -4.5 93 -9 -9 1010.0 998.7
16 13.12 З 3 6000 м слаб. снег {ливн. осадки} 10/10 600 м
[]
-3.2 -5.7 83 -8 -8 1008.4 997.2
18 13.12 СЗ 7 2900 м слаб. снег 10/10 270 м
[]
-4.7 -11 -11 1011.4 1000.1 -5.2 -2.5
19 13.12 СЗ 8 3700 м слаб. снег 10/10 120 м
[]
-5.3 -13 -13 1012.5 1001.2
20 13.12 СЗ 8 4700 м слаб. снег 10/10 800 м
[]
-5.7 -5.7 100 -15 -15 1013.8 1002.4
21 13.12 СЗ 9 3200 м слаб. снег 10/10 720 м
[]
-5.9 -6.2 98 -15 -15 1014.8 1003.4
23 13.12 СЗ 7 2400 м слаб. снег 10/10 240 м
[]
-6.1 -6.1 100 -15 -15 1016.5 1005.1
22 13.12 СЗ 8 4300 м слаб. снег 10/10 900 м
[]
-6.2 -7.3 92 -15 -15 1015.8 1004.4
00 14.12 СЗ 8 4500 м слаб. снег 10/10 660 м
[]
-6.4 -6.4 100 -16 -16 1017.4 1006.0
01 14.12 СЗ 8 5000 м слаб. снег 10/10 400 м
[]
-6.6 -6.9 98 -16 -16 1018.1 1006.6
02 14.12 СЗ 7 5000 м слаб. снег 10/10 1170 м
[]
-6.9 -7.5 95 -16 -16 1019.0 1007.5
03 14.12 СЗ 8 4900 м слаб. снег 10/10 930 м
[]
-6.8 -7.7 93 -16 -16 1019.5 1008.0
05 14.12 СЗ 6 3900 м слаб. снег 10/10 1020 м
[]
-6.9 -7.6 95 -15 -15 1020.3 1008.8
04 14.12 СЗ 7 4400 м слаб. снег 10/10 1170 м
[]
-6.9 -7.9 93 -16 -16 1020.0 1008.5
06 14.12 СЗ 6 5000 м слаб. снег 10/10 1170 м
[]
-7.1 -8.6 89 -15 -15 1020.6 1009.1 -7.1 -4.7
07 14.12 ЮЗ 2 5000 м слаб. снег 10/10 1470 м
[]
-6.7 -8.4 88 -11 -11 1021.0 1009.5
08 14.12 З 3 16 км слаб. снег 10/10 1050 м
[]
-6.6 -9.9 77 -12 -12 1021.2 1009.7
09 14.12 З 4 10 км слаб. ливневой снег 10/10 1500 м
[]
-6.7 -9.8 79 -13 -13 1021.3 1009.8
11 14.12 ЮЗ 3 35 км в посл. час снег {ливн. осадки} 10/10 720 м
[]
-7.1 -10.2 78 -12 -12 1021.0 1009.4
10 14.12 ЮЗ 3 25 км слаб. снег {ливн. осадки} 10/10 1020 м
[]
-6.9 -9.6 81 -12 -12 1021.2 1009.7
12 14.12 ЮЗ 4 35 км {ливн. осадки} 10/10 1500 м
[]
-7.6 -11.2 75 -14 -14 1020.8 1009.2
13 14.12 ЮЗ 5 35 км 10/10 1410 м
[]
-7.7 -11.9 72 -15 -15 1020.4 1008.9
14 14.12 ЮЗ 4 35 км 10/10 1500 м
[]
-7.2 -11.4 72 -13 -13 1020.2 1008.6
15 14.12 ЮЗ 2 35 км слаб. ливневой снег 10/10 930 м
[]
-7.4 -10.5 78 -12 -12 1019.7 1008.2
17 14.12 ЮЗ 4 35 км {ливн. осадки, снег} 10/10 960 м
[]
-7.3 -10.7 77 -14 -14 1018.1 1006.6
16 14.12 ЮЗ 4 35 км в посл. час снег {ливн. осадки} 10/10 1050 м
[]
-7.4 -11.4 73 -14 -14 1019.0 1007.5
18 14.12 ЮЗ 3 35 км 10/10 1230 м
[]
-7.8 -10.9 78 -13 -13 1017.3 1005.8 -7.9 -7.6
19 14.12 Ю 2 35 км слаб. ливневой снег 10/10 1470 м
[]
-8.1 -11.3 78 -13 -13 1016.5 1005.0
20 14.12 Ю 1 35 км {ливн. осадки, снег} 10/10 1500 м
[]
-8.2 -12.2 73 -11 -11 1015.7 1004.2
21 14.12 ЮЗ 3 35 км {ливн. осадки, снег} 10/10 1470 м
[]
-8.2 -12.2 73 -14 -14 1014.9 1003.4
23 14.12 ЮЗ 3 35 км {ливн. осадки, снег} 10/10 1050 м
[]
-10.1 -13.5 76 -15 -15 1012.7 1001.1
22 14.12 Ю 2 18 км слаб. ливневой снег 10/10 1500 м
[]
-8.4 -11.6 78 -12 -12 1013.9 1002.4
00 15.12 ЮЗ 2 35 км 4/4 540 м
[]
-9.8 -13.9 72 -14 -14 1011.9 1000.3
01 15.12 ЮЗ 3 35 км ясно -10.2 -14.5 71 -16 -16 1010.6 999.0
02 15.12 Ю 2 35 км 3/3 800 м
[]
-9.7 -13.1 76 -14 -14 1009.4 997.9
03 15.12 Ю 4 35 км 3/3 900 м
[]
-9.9 -13.3 76 -16 -16 1008.0 996.5
05 15.12 Ю 2 35 км слаб. снег 10/10 720 м
[]
-7.9 -11.7 74 -12 -12 1005.5 994.1
04 15.12 Ю 3 35 км 10/10 750 м
[]
-8.2 -12.0 74 -14 -14 1006.7 995.3
06 15.12 Ю 3 35 км слаб. ливневой снег 10/10 700 м
[]
-7.9 -11.5 75 -14 -14 1004.4 993.0 -10.4 -7.1
07 15.12 ЮЗ 5 35 км в посл. час снег {ливн. осадки} 10/10 630 м
[]
-8.9 -11.9 79 -17 -17 1003.1 991.6
08 15.12 Ю 3 35 км в посл. час снег {ливн. осадки} 9/9 600 м
[]
-9.1 -11.9 80 -15 -15 1002.0 990.6
09 15.12 ЮЗ 5 35 км {ливн. осадки} 9/9 630 м
[]
-9.8 -12.6 80 -17 -17 1001.3 989.9
11 15.12 З 5 35 км {ливн. осадки} ясно -9.7 -14.0 71 -18 -18 1000.6 989.2
10 15.12 ЮЗ 7 35 км {ливн. осадки} 9/9 630 м
[]
-9.8 -12.5 81 -19 -19 1000.8 989.4
12 15.12 З 5 35 км ясно -9.4 -16.9 54 -17 -17 1000.6 989.2
13 15.12 ЮЗ 4 35 км ясно -9.6 -17.8 51 -16 -16 1000.8 989.4
14 15.12 ЮЗ 5 35 км 3/0
[]
-9.9 -17.9 52 -17 -17 1000.9 989.5
15 15.12 Ю 4 35 км 10/0
[]
-9.3 -15.5 61 -16 -16 1001.4 990.0
17 15.12 Ю 4 35 км 5/0
[]
-8.3 -15.6 56 -15 -15 1002.1 990.7
16 15.12 Ю 4 35 км 9/0
[]
-8.3 -14.5 61 -15 -15 1001.8 990.5
18 15.12 ЮВ 5 35 км 1/0
[]
-8.4 -13.8 65 -16 -16 1001.8 990.4 -11.0 -7.8
19 15.12 ЮВ 5 35 км 9/0
[]
-7.9 -15.0 57 -15 -15 1001.7 990.4
20 15.12 Ю 2 35 км 5/0
[]
-7.6 -13.4 63 -12 -12 1001.2 989.8
21 15.12 ЮВ 4 35 км 9/0
[]
-7.8 -14.7 58 -14 -14 1000.5 989.2
23 15.12 ЮЗ 1 35 км 4/0
[]
-8.9 -17.2 51 -11 -11 999.0 987.7
22 15.12 ЮЗ 3 35 км 5/0
[]
-9.4 -16.9 54 -15 -15 999.6 988.3
00 16.12 Ю 2 35 км 9/0
[]
-8.5 -16.8 51 -12 -12 998.0 986.7
01 16.12 ЮВ 4 35 км 10/0
[]
-7.2 -13.5 61 -13 -13 996.9 985.6
02 16.12 Ю 3 35 км 4/0
[]
-8.1 -13.9 63 -14 -14 995.5 984.2
03 16.12 ЮВ 5 35 км 6/0
[]
-7.7 -12.9 66 -15 -15 994.0 982.7
05 16.12 ЮВ 6 35 км 9/0
[]
-6.9 -12.1 66 -15 -15 990.9 979.7
04 16.12 В 6 35 км 10/10 800 м
[]
-6.5 -12.6 62 -14 -14 992.2 981.1
06 16.12 ЮВ 7 35 км ясно -4.6 -11.5 58 -12 -12 989.3 978.3 -9.9 -3.7
07 16.12 ЮВ 8 35 км ясно -4.2 -12.5 52 -12 -12 988.0 976.9
08 16.12 В 6 35 км ясно -6.3 -12.4 62 -14 -14 987.0 975.9
09 16.12 ЮВ 8 35 км ясно -6.3 -13.3 58 -15 -15 985.8 974.7
11 16.12 ЮВ 9 35 км 6/6 1500 м
[]
-1.9 -11.2 49 -10 -10 983.9 973.0
10 16.12 ЮВ 5 35 км 8/8 1500 м
[]
-4.7 -11.8 58 -11 -11 985.0 974.0
12 16.12 ЮВ 6 35 км 8/0
[]
-2.4 -9.9 56 -9 -9 983.1 972.2
13 16.12 ЮВ 9 35 км 10/0
[]
-1.6 -8.2 61 -10 -10 982.4 971.6
14 16.12 ЮВ 10 35 км 9/0
[]
-1.6 -8.2 61 -10 -10 982.0 971.1
15 16.12 ЮВ 10 27 км 10/0
[]
-1.7 -7.6 64 -10 -10 981.8 971.0
17 16.12 В 9 35 км 9/0
[]
-1.6 -8.2 61 -9 -9 982.7 971.8
16 16.12 ЮВ 10 35 км 9/0
[]
-1.7 -7.4 65 -10 -10 981.7 970.8
18 16.12 ЮВ 10 35 км 9/9 1500 м
[]
-1.0 -7.8 60 -9 -9 981.8 971.0 -7.2 -0.8
19 16.12 ЮВ 8 35 км 10/0 2000 м
[]
-1.1 -8.6 57 -8 -8 982.2 971.4
20 16.12 ЮВ 8 35 км 10/10 1500 м
[]
-1.7 -8.3 61 -9 -9 982.4 971.5
21 16.12 В 7 35 км 9/9 1500 м
[]
-2.9 -8.5 65 -10 -10 982.8 971.9
23 16.12 ЮВ 8 35 км 9/0
[]
-1.1 -10.7 48 -8 -8 983.6 972.7
22 16.12 Ю 4 35 км 9/0
[]
-1.4 -10.4 50 -6 -6 983.3 972.4
00 17.12 В 6 35 км 10/0
[]
-2.6 -8.7 63 -10 -10 983.9 973.0
01 17.12 ЮВ 6 35 км 10/0
[]
-2.3 -9.5 58 -9 -9 984.3 973.4
02 17.12 В 7 35 км 10/0 2000 м
[]
-1.9 -8.9 59 -9 -9 984.6 973.7
03 17.12 ЮВ 6 35 км 10/0 2000 м
[]
-2.4 -8.7 62 -9 -9 984.8 973.9
05 17.12 ЮВ 8 35 км 10/0 2000 м
[]
-2.7 -8.3 65 -10 -10 985.5 974.5
04 17.12 ЮВ 7 35 км 10/0 2000 м
[]
-2.7 -8.3 65 -10 -10 985.1 974.1
06 17.12 В 9 35 км 10/10 1500 м
[]
-2.6 -8.7 63 -11 -11 985.7 974.8 -3.2 -0.2
07 17.12 ЮВ 9 35 км 10/0 2000 м
[]
-3.2 -8.6 66 -12 -12 986.2 975.2
08 17.12 В 8 35 км 10/0
[]
-3.2 -9.5 62 -11 -11 986.9 975.9
09 17.12 ЮВ 11 35 км 10/0
[]
-3.8 -9.8 63 -13 -13 987.0 976.0
11 17.12 ЮВ 13 35 км 10/0
[]
-4.7 -11.1 61 -15 -15 987.9 976.9
10 17.12 ЮВ 13 35 км 10/0
[]
-4.3 -10.5 62 -14 -14 987.6 976.6
12 17.12 ЮВ 12 35 км 10/0
[]
-5.1 -11.0 63 -15 -15 988.7 977.6
13 17.12 ЮВ 10 35 км 9/0
[]
-5.3 -11.2 63 -15 -15 988.8 977.7
14 17.12 ЮВ 9 35 км 10/0
[]
-5.7 -11.0 66 -15 -15 989.0 977.9
15 17.12 ЮВ 10 35 км 6/0
[]
-5.7 -10.8 67 -15 -15 989.1 978.0
17 17.12 ЮВ 8 35 км 6/0
[]
-5.3 -10.2 68 -14 -14 988.0 976.9
16 17.12 ЮВ 7 35 км 9/0
[]
-5.7 -11.4 64 -14 -14 988.6 977.5
18 17.12 ЮВ 9 35 км 9/9 1500 м
[]
-5.6 -10.9 66 -15 -15 988.1 977.0 -6.1 -1.2
19 17.12 ЮВ 10 35 км 9/0
[]
-6.0 -10.6 70 -16 -16 987.4 976.3
20 17.12 ЮВ 10 35 км 9/0
[]
-6.1 -10.5 71 -16 -16 986.8 975.7
21 17.12 ЮВ 8 35 км 1/0 2000 м
[]
-7.0 -11.8 69 -16 -16 986.7 975.5
23 17.12 ЮВ 8 35 км 3/0 2000 м
[]
-7.0 -13.3 61 -16 -16 985.4 974.3
22 17.12 ЮВ 8 35 км 10/0
[]
-6.6 -12.2 64 -15 -15 986.0 974.9
00 18.12 ЮВ 7 35 км 1/0
[]
-7.0 -13.3 61 -15 -15 984.5 973.4
01 18.12 ЮВ 6 35 км 8/0
[]
-6.2 -14.4 52 -14 -14 983.3 972.2
02 18.12 ЮВ 5 35 км 3/0
[]
-7.4 -15.0 54 -15 -15 982.2 971.0
03 18.12 ЮВ 5 35 км ясно -6.6 -15.3 50 -13 -13 980.8 969.8
05 18.12 ЮВ 5 35 км ясно -6.2 -17.7 40 -13 -13 978.7 967.7
04 18.12 Ю 6 35 км ясно -6.7 -15.6 49 -14 -14 979.7 968.7
06 18.12 ЮВ 5 35 км ясно -7.4 -16.5 48 -14 -14 977.9 966.8 -9.1 -5.4
07 18.12 Ю 3 35 км ясно -6.6 -17.8 41 -12 -12 977.0 966.0
08 18.12 Ю 2 35 км ясно -8.2 -17.3 48 -12 -12 977.0 965.9
09 18.12 Ю 2 35 км ясно -8.0 -17.1 48 -12 -12 976.8 965.7

 

Местоположение метеостанции Qaarsut Mittarfia (Гренландия): широта 70.73 долгота -52.70 высота над уровнем моря 89 м.

В архиве по умолчанию представлена погода в Qaarsut Mittarfia за последнюю неделю. Архивные данные за месяц целиком и за предыдущие месяцы, начиная с января 2011 года, Вы можете получить, выбрав интересующий диапазон дат из раскрывающегося списка и нажав кнопку "Ввод!".

Внимание! Время в таблицах - всемирное. Для получения местного времени необходимо прибавить поправку, которая в Qaarsut Mittarfia равна -3 ч.

Смотрите также архив погоды в соседних городах и на ближайших метеорологических станциях:

Погода в Nuussuaataa (Гренландия) (70 км)
Погода в Ilulissat (Гренландия) (178 км)
Погода в Aasiaat Mittarfia (Гренландия) (224 км)
Погода в Aasiaat (Гренландия) (226 км)
Погода в Mittarfik Upernavik (Гренландия) (257 км)
Погода в Kitsissut (Гренландия) (332 км)
Погода в Kitsissorsuit (Гренландия) (405 км)
Погода в Kangerlussuaq (Гренландия) (420 км)
Погода в Sisimiut Mittarfia (Гренландия) (422 км)
Погода в Summit (Гренландия) (538 км)

Пояснения к столбцам:

Ветер - указаны скорость ветра в м/с - средняя за 10 мин, порывы в срок и между сроками (в фигурных скобках) и направление, откуда дует ветер: С - северный, СВ - северо-восточный, В - восточный, ЮВ - юго-восточный, Ю - южный, ЮЗ - юго-западный, З - западный, СЗ - северо-западный.
Видимость - горизонтальная дальность видимости в метрах или километрах. При видимости от 1 до 10 км при отсутствии осадков обычно наблюдается дымка, при ухудшении видимости до 1 км и менее - туман. В сухую погоду видимость может ухудшаться дымом, пылью или мглою.
Явления - указаны атмосферные явления, наблюдавшиеся в срок или в последний час перед сроком; фигурными скобками обозначены явления, наблюдавшиеся между сроками (за 1-3 часа до срока); квадратными скобками обозначены град или гололедные отложения с указанием их диаметра в мм.
Облачность - указаны через наклонную черту общая и нижняя облачность в баллах и высота нижней границы облаков в метрах; квадратными скобками обозначены формы облаков: Ci - перистые, Cs - перисто-слоистые, Cc - перисто-кучевые, Ac - высококучевые, As - высокослоистые, Sc - слоисто-кучевые, Ns - слоисто-дождевые, Cu - кучевые, Cb - кучево-дождевые. Подробнее классификацию облаков см. в Атласе облаков (PDF).
T - Температура воздуха - температура, измеренная на высоте 2 м над землей.
Td - Температура точки росы - температура, при понижении до которой содержащийся в воздухе водяной пар достигнет насыщения.
f - Относительная влажность воздуха - влажноcть воздуха, измеренная на высоте 2 м над землей.
Te - Эффективная температура - температура, которую ощущает одетый по сезону человек в тени. Характеристика душности погоды. При расчете учитывается влияние влажности воздуха и скорости ветра на теплоощущения человека.
Tes - Эффективная температура на солнце - температура, которую ощущает человек, с поправкой на солнечный нагрев. Характеристика знойности погоды. Зависит от высоты солнца над горизонтом, облачности и скорости ветра. Ночью, в пасмурную погоду, а также при ветре 12 м/с и более поправка равна нулю.
P - Атмосферное давление - приведенное к уровню моря атмосферное давление.
Po - Атмосферное давление - измеренное на уровне метеостанции атмосферное давление.
Tmin - Минимальная температура - минимум температуры воздуха на высоте 2 м над землей.
Tmax - Максимальная температура - максимум температуры воздуха на высоте 2 м над землей.
R - Количество осадков - Количество выпавших осадков за период времени, мм. При наведении курсора мыши на число - период времени, за который выпало указанное количество осадков.
R24 - Количество осадков - Количество выпавших осадков за 24 часа, мм.
S - Снежный покров - Высота снежного покрова, см. При наведении курсора мыши на число - состояние снежного покрова и степень покрытия местности в баллах.